Weather History for KMFV - January, 2014

Change the Weather History Date:

Wednesday, January 29, 2014

  Actual Average (KWAL) Record (KWAL)
Temperature  
Mean Temperature 18 °F 37 °F  
Max Temperature 24 °F 45 °F 72 °F (2002)
Min Temperature 12 °F 29 °F 8 °F (2014)
Degree Days  
Heating Degree Days 47    
Month to date heating degree days  
Since 1 July heating degree days  
Cooling Degree Days 0    
Month to date cooling degree days  
Year to date cooling degree days  
Moisture  
Dew Point 8 °F    
Average Humidity 62    
Maximum Humidity 79    
Minimum Humidity 39    
Precipitation  
Precipitation 0.14 in 0.10 in 0.89 in ()
Month to date precipitation 2.84  
Year to date precipitation 2.84  
Sea Level Pressure  
Sea Level Pressure 30.27 in    
Wind  
Wind Speed 10 mph (NNW)    
Max Wind Speed 17 mph    
Max Gust Speed 24 mph    
Visibility 8 miles    
Events Snow    
T = Trace of Precipitation, MM = Missing Value Source: NWS Daily Summary

Daily Weather History Graph

Daily Weather History Graph

Search for Another Location

Airport or City:

Trip Planner

Search our weather history database for the weather conditions in past years. The results will help you decide how hot, cold, wet, or windy it might be!

Date:

Astronomy

Jan. 29, 2014 Rise Set
Actual Time 7:09 AM EST 5:23 PM EST
Civil Twilight 6:41 AM EST 5:51 PM EST
Nautical Twilight 6:09 AM EST 6:22 PM EST
Astronomical Twilight 5:39 AM EST 6:53 PM EST
Moon 5:43 AM EST (1/29) 4:20 PM EST (1/29)
Length of Visible Light 11h 09m
Length of Day
10h 14m
Waning Crescent, 2% of the Moon is Illuminated
Jan 29
Waning Crescent
Jan 30
New
Feb 6
First Quarter
Feb 14
Full
Feb 22
Last Quarter

Hourly Weather History & Observations

Time (EST) Temp. Windchill Dew Point Humidity Pressure Visibility Wind Dir Wind Speed Gust Speed Precip Events Conditions
12:15 AM 17.6 °F 7.3 °F 12.2 °F 79% 30.20 in 0.8 mi North 8.1 mph - 0.03 in Snow Snow
12:35 AM 17.6 °F 4.3 °F 12.2 °F 79% 30.20 in 0.8 mi North 12.7 mph - 0.06 in Snow Snow
12:56 AM 17.6 °F 5.0 °F 12.2 °F 79% 30.19 in 0.8 mi North 11.5 mph 17.3 mph N/A Snow Snow
1:16 AM 17.6 °F 5.0 °F 12.2 °F 79% 30.17 in 0.8 mi North 11.5 mph 17.3 mph 0.04 in Snow Snow
1:35 AM 17.6 °F 5.0 °F 12.2 °F 79% 30.19 in 0.8 mi North 11.5 mph 18.4 mph 0.05 in Snow Snow
1:55 AM 17.6 °F 6.4 °F 12.2 °F 79% 30.18 in 1.0 mi North 9.2 mph 17.3 mph 0.07 in Snow Snow
2:15 AM 17.6 °F 6.4 °F 12.2 °F 79% 30.17 in 1.0 mi North 9.2 mph 18.4 mph 0.01 in Snow Snow
2:35 AM 17.6 °F 5.0 °F 12.2 °F 79% 30.17 in 1.8 mi North 11.5 mph 16.1 mph 0.01 in Snow Light Snow
2:55 AM 17.6 °F 6.4 °F 12.2 °F 79% 30.18 in 1.8 mi North 9.2 mph 17.3 mph 0.01 in Snow Light Snow
3:15 AM 17.6 °F 5.7 °F 12.2 °F 79% 30.17 in 1.5 mi North 10.4 mph 16.1 mph N/A Snow Light Snow
3:35 AM 17.6 °F 4.3 °F 12.2 °F 79% 30.17 in 1.0 mi North 12.7 mph - N/A Snow Light Snow
3:55 AM 17.6 °F 5.0 °F 12.2 °F 79% 30.17 in 1.0 mi North 11.5 mph 19.6 mph N/A Snow Light Snow
4:15 AM 17.6 °F 3.7 °F 12.2 °F 79% 30.18 in 2.5 mi North 13.8 mph 19.6 mph N/A Snow Light Snow
4:35 AM 17.6 °F 5.7 °F 12.2 °F 79% 30.17 in 4.0 mi North 10.4 mph 16.1 mph N/A Snow Light Snow
4:55 AM 17.6 °F 3.7 °F 12.2 °F 79% 30.17 in 7.0 mi North 13.8 mph - 0.01 in Snow Light Snow
5:15 AM 19.4 °F 6.6 °F 12.2 °F 74% 30.18 in 10.0 mi NNW 12.7 mph 16.1 mph 0.01 in   Overcast
5:35 AM 19.4 °F 6.6 °F 12.2 °F 74% 30.18 in 10.0 mi NNW 12.7 mph 19.6 mph 0.02 in   Overcast
5:55 AM 19.4 °F 8.6 °F 12.2 °F 74% 30.20 in 10.0 mi NNW 9.2 mph 19.6 mph 0.02 in Snow Light Snow
6:16 AM 19.4 °F 6.0 °F 12.2 °F 74% 30.19 in 10.0 mi North 13.8 mph 19.6 mph N/A Snow Light Snow
6:35 AM 19.4 °F 5.5 °F 12.2 °F 74% 30.20 in 10.0 mi North 15.0 mph 19.6 mph 0.01 in   Overcast
6:55 AM 19.4 °F 7.9 °F 12.2 °F 74% 30.20 in 10.0 mi North 10.4 mph - 0.01 in Snow Light Snow
7:15 AM 19.4 °F 7.2 °F 12.2 °F 74% 30.22 in 10.0 mi NNW 11.5 mph 16.1 mph N/A Snow Light Snow
7:35 AM 19.4 °F 7.2 °F 12.2 °F 74% 30.24 in 10.0 mi North 11.5 mph 18.4 mph N/A   Overcast
7:55 AM 19.4 °F 9.5 °F 12.2 °F 74% 30.23 in 10.0 mi North 8.1 mph 18.4 mph N/A   Overcast
8:16 AM 19.4 °F 8.6 °F 8.6 °F 63% 30.24 in 10.0 mi North 9.2 mph 18.4 mph N/A   Overcast
8:35 AM 19.4 °F 8.6 °F 6.8 °F 58% 30.24 in 10.0 mi North 9.2 mph - N/A   Overcast
8:55 AM 19.4 °F 6.0 °F 8.6 °F 63% 30.25 in 10.0 mi North 13.8 mph 19.6 mph N/A   Overcast
9:15 AM 19.4 °F 6.6 °F 5.0 °F 54% 30.26 in 10.0 mi North 12.7 mph 23.0 mph N/A   Overcast
9:36 AM 19.4 °F 7.2 °F 5.0 °F 54% 30.27 in 10.0 mi North 11.5 mph 19.6 mph N/A   Mostly Cloudy
9:55 AM 21.2 °F 9.5 °F 3.2 °F 46% 30.28 in 10.0 mi North 11.5 mph 21.9 mph N/A   Clear
10:15 AM 21.2 °F 8.3 °F 1.4 °F 42% 30.30 in 10.0 mi NNW 13.8 mph 20.7 mph N/A   Clear
10:35 AM 21.2 °F 7.3 °F 3.2 °F 46% 30.30 in 10.0 mi NNW 16.1 mph 23.0 mph 0.01 in   Clear
10:55 AM 21.2 °F 8.9 °F 5.0 °F 50% 30.29 in 10.0 mi North 12.7 mph 20.7 mph 0.01 in   Clear
11:15 AM 23.0 °F 11.7 °F 6.8 °F 50% 30.28 in 10.0 mi NNW 11.5 mph 18.4 mph N/A   Clear
11:35 AM 23.0 °F 9.6 °F 6.8 °F 50% 30.29 in 10.0 mi NNW 16.1 mph 20.7 mph N/A   Clear
11:55 AM 21.2 °F 6.8 °F 6.8 °F 54% 30.29 in 10.0 mi NNW 17.3 mph 24.2 mph N/A   Clear
12:15 PM 21.2 °F 9.5 °F 3.2 °F 46% 30.28 in 10.0 mi NW 11.5 mph 23.0 mph N/A   Clear
12:35 PM 21.2 °F 6.8 °F 5.0 °F 50% 30.28 in 10.0 mi NNW 17.3 mph 21.9 mph N/A   Clear
12:55 PM 21.2 °F 8.3 °F 3.2 °F 46% 30.28 in 10.0 mi NW 13.8 mph 20.7 mph N/A   Clear
1:15 PM 23.0 °F 11.7 °F 5.0 °F 46% 30.27 in 10.0 mi NW 11.5 mph 18.4 mph 0.01 in   Clear
1:35 PM 23.0 °F 12.4 °F 1.4 °F 39% 30.27 in 10.0 mi NNW 10.4 mph 23.0 mph 0.01 in   Clear
1:56 PM 24.8 °F 14.0 °F 3.2 °F 40% 30.27 in 10.0 mi NW 11.5 mph - N/A   Clear
2:15 PM 23.0 °F 11.7 °F 3.2 °F 43% 30.27 in 10.0 mi NNW 11.5 mph - N/A   Clear
2:35 PM 23.0 °F 11.7 °F 1.4 °F 39% 30.27 in 10.0 mi NW 11.5 mph - N/A   Clear
2:55 PM 23.0 °F 13.1 °F 3.2 °F 43% 30.27 in 10.0 mi NW 9.2 mph - N/A   Clear
3:15 PM 23.0 °F 12.4 °F 3.2 °F 43% 30.28 in 10.0 mi WNW 10.4 mph - N/A   Clear
3:35 PM 23.0 °F 15.8 °F 3.2 °F 43% 30.27 in 10.0 mi NNW 5.8 mph - N/A   Clear
3:56 PM 23.0 °F 13.1 °F 5.0 °F 46% 30.28 in 10.0 mi WNW 9.2 mph - N/A   Clear
4:35 PM 23.0 °F 13.9 °F 5.0 °F 46% 30.29 in 10.0 mi WNW 8.1 mph - N/A   Clear
4:55 PM 23.0 °F 14.7 °F 5.0 °F 46% 30.29 in 10.0 mi WNW 6.9 mph - N/A   Clear
5:16 PM 23.0 °F 14.7 °F 5.0 °F 46% 30.30 in 10.0 mi WNW 6.9 mph - N/A   Clear
5:36 PM 21.2 °F 12.6 °F 5.0 °F 50% 30.30 in 10.0 mi NW 6.9 mph - N/A   Clear
5:56 PM 23.0 °F 14.7 °F 1.4 °F 39% 30.31 in 10.0 mi WNW 6.9 mph - N/A   Clear
6:15 PM 23.0 °F 15.8 °F 3.2 °F 43% 30.32 in 10.0 mi NW 5.8 mph - N/A   Clear
6:35 PM 23.0 °F 18.4 °F 1.4 °F 39% 30.33 in 10.0 mi WNW 3.5 mph - N/A   Clear
6:55 PM 21.2 °F - 3.2 °F 46% 30.33 in 10.0 mi Calm Calm - N/A   Clear
7:15 PM 19.4 °F - 6.8 °F 58% 30.34 in 10.0 mi Calm Calm - N/A   Clear
7:35 PM 19.4 °F - 6.8 °F 58% 30.35 in 10.0 mi Calm Calm - N/A   Clear
7:55 PM 17.6 °F - 6.8 °F 63% 30.35 in 10.0 mi Calm Calm - N/A   Clear
8:15 PM 17.6 °F - 8.6 °F 68% 30.35 in 10.0 mi Calm Calm - N/A   Clear
8:35 PM 17.6 °F - 8.6 °F 68% 30.35 in 10.0 mi Calm Calm - N/A   Clear
8:55 PM 17.6 °F - 8.6 °F 68% 30.35 in 10.0 mi Calm Calm - N/A   Clear
9:15 PM 17.6 °F - 8.6 °F 68% 30.36 in 10.0 mi Calm Calm - N/A   Clear
9:36 PM 17.6 °F - 8.6 °F 68% 30.35 in 10.0 mi Calm Calm - N/A   Clear
9:56 PM 17.6 °F - 8.6 °F 68% 30.35 in 10.0 mi Calm Calm - N/A   Clear
10:15 PM 17.6 °F - 6.8 °F 63% 30.36 in 10.0 mi Calm Calm - N/A   Clear
10:35 PM 15.8 °F - 6.8 °F 68% 30.37 in 10.0 mi Calm Calm - N/A   Clear
10:55 PM 14.0 °F - 6.8 °F 73% 30.37 in 10.0 mi Calm Calm - N/A   Clear
11:16 PM 14.0 °F - 8.6 °F 79% 30.38 in 10.0 mi Calm Calm - N/A   Clear
11:35 PM 12.2 °F - 6.8 °F 79% 30.37 in 10.0 mi Calm Calm - N/A   Clear
11:55 PM 12.2 °F - 6.8 °F 79% 30.38 in 10.0 mi Calm Calm - N/A   Clear